Flag for Israel Weather past 2 weeks in Holon, Israel

Now
82 °F

Sunny.


Feels Like: 85 °F
Forecast: 71 / 84 °F
Wind: 12 mph from Northwest

Location: Dov Airport

Current Time: Jul 4, 2015 at 4:43:12 PM

Latest Report: Jul 4, 2015 at 3:50 PM


Visibility: 10 mi

Pressure: 29.86 "Hg

Humidity: 62%

Dew point: 68 °F

Location of HolonLocation

Historic Weather in Holon — Graph

°F

Holon temperature yesterday

Maximum temperature yesterday: 82 °F (at 1:50 PM)
Minimum temperature yesterday: 75 °F (at 5:50 AM)
Average temperature yesterday: 79 °F

Past Weeks' High & Low Weather Summary

 TemperatureHumidityPressure
High84 °F (Jun 27, 5:50 PM)83% (Jun 27, 6:00 AM)29.95 "Hg (Jun 27, 6:00 AM)
Low72 °F (Jun 29, 5:50 AM)27% (Jun 27, 8:50 PM)29.56 "Hg (Jun 27, 10:50 PM)
Average78 °F65%29.83 "Hg
* Reported Jun 19 2:50 PM — Jul 4 2:50 PM, Holon, Weather by CustomWeather, © 2015

Note: Actual official high and low records may vary slightly from our data, if they occured in-between our weather recording intervals... More about our weather records

Advertising

Holon weather history for previous 24 hours

 ConditionsComfort  
Time TempWeatherWind HumidityBarometerVisibility
2:50 PM
Sat, Jul 4
82 °FSunny.12 mph58%29.86 "Hg10 mi
1:50 PM82 °FSunny.12 mph58%29.86 "Hg10 mi
12:50 PM84 °FSunny.12 mph55%29.89 "Hg10 mi
11:50 AM81 °FSunny.10 mph58%29.89 "Hg10 mi
10:50 AM81 °FSunny.9 mph58%29.89 "Hg10 mi
9:50 AM79 °FScattered clouds.7 mph61%29.89 "HgN/A
8:50 AM79 °FScattered clouds.6 mph61%29.89 "HgN/A
7:50 AM75 °FScattered clouds.5 mph69%29.86 "HgN/A
6:50 AM75 °FScattered clouds.3 mph74%29.86 "HgN/A
6:00 AM73 °FPassing clouds.3 mph78%29.86 "HgN/A
9:50 PM
Fri, Jul 3
77 °FPassing clouds.3 mph74%29.89 "HgN/A
8:50 PM77 °FPassing clouds.5 mph74%29.86 "HgN/A
7:50 PM77 °FPassing clouds.6 mph74%29.86 "HgN/A
6:50 PM79 °FPassing clouds.8 mph70%29.86 "HgN/A
5:50 PM81 °FPassing clouds.9 mph66%29.86 "HgN/A
4:50 PM82 °FPassing clouds.10 mph62%29.86 "HgN/A
Weather by CustomWeather, © 2015

See weather overviewHow to use our weather pages